[[{"header":{"parameterUnit":"m.s-1","parameterCategory":1,"la1":30.2991,"la2":30.254,"lo1":-89.0895,"lo2":-89.0444,"dy":0.0017,"dx":0.0017,"nx":28,"ny":28,"refTime":"2025-04-05T21:00:00:Z","depth":0,"parameterNumber":2,"parameterNumberName":"U-component_of_WINDS"},"data":[0,0,0,0,0,0,0,0,0,0,0,0,0,0,0,0,0,0,0,0,0,0,0,0,0,0,0,0,0,0,0,0,0,0,0,0,0,0,0,0,0,0,0,0,0,0,0,0,0,0,0,0,0,0,0,0,0,0,1.0082,1.0082,0,1.0101,1.0101,1.0101,1.0071,1.0069,1.0068,1.0067,1.0088,1.0089,1.0091,0,0,0,0,0,0,0,0,0,0,0,0,0,1.0018,1.0019,1.0081,1.0082,1.0082,1.0101,1.0101,1.0101,1.0071,1.0069,1.0068,1.0067,1.0087,1.0089,1.0091,0,0,0,0,0,0,0,0,0,0,0,0,0,1.0042,1.002,1.0081,1.0069,1.0068,1.0101,1.0101,1.0101,1.0071,1.0069,1.0068,1.0066,1.0087,1.0089,1.0091,1.0137,0,0,1.0098,1.0099,0,0,0,0,0,0,0,0,1.0041,1.0044,1.0071,1.007,1.0069,1.0082,1.0086,1.0113,1.0071,1.007,1.0067,1.0066,1.0087,1.0089,1.0096,1.0138,1.0139,1.0098,1.01,1.0101,1.0101,0,0,0,0,0,0,0,1.0039,1.0043,1.0089,1.0071,1.007,1.0062,1.0064,1.0091,1.0087,1.007,1.0068,1.007,1.0086,1.0094,1.0097,1.0139,1.0098,1.01,1.0102,1.0103,1.0218,1.0219,0,0,0,0,0,0,1.0039,1.0042,1.0088,1.009,1.0051,1.0065,1.0067,1.0079,1.0087,1.0086,1.0072,1.0069,1.0091,1.0094,1.0097,1.015,1.0101,1.0103,1.0104,1.0216,1.0218,1.022,0,0,0,0,0,0,1.0038,1.0043,1.0088,1.0065,1.007,1.0067,1.0082,1.008,1.0088,1.0088,1.0087,1.008,1.009,1.0094,1.0127,1.0151,1.0104,1.0106,1.0214,1.0217,1.0219,1.0258,0,0,0,0,0,0,1.0036,1.0043,1.0061,1.0066,1.0072,1.0117,1.0083,1.0082,1.0092,1.0089,1.0096,1.0096,1.0089,1.0124,1.0129,1.0153,1.0108,1.0212,1.0215,1.0218,1.0254,1.0261,1.0267,0,0,0,0,0,1.0034,1.0071,1.0062,1.0068,1.0094,1.0119,1.0122,1.0113,1.0094,1.0112,1.0111,1.0096,1.0147,1.0127,1.0133,1.0158,1.021,1.0214,1.0218,1.0251,1.026,1.0267,0,0,0,0,0,0,1.0069,1.0072,1.0061,1.0102,1.011,1.0114,1.0135,1.0123,1.0137,1.0133,1.0122,1.0124,1.0159,1.0162,1.014,1.0202,1.0176,1.0181,1.0199,1.0207,1.0213,1.0211,1.011,0,0,0,0,0,1.0082,1.0102,1.0103,1.0138,1.0143,1.0139,1.0149,1.0142,1.015,1.0154,1.0156,1.0165,1.0183,1.0195,1.0212,1.0254,1.0255,1.0274,1.0281,1.0286,1.029,1.0312,1.032,1.0232,1.0232,1.0232,0,0,1.0108,1.0112,1.0125,1.0146,1.0151,1.0172,1.0142,1.0166,1.0181,1.0157,1.0188,1.019,1.0199,1.0237,1.0254,1.0241,1.0315,1.0291,1.0295,1.0297,1.0317,1.0325,1.0332,1.0235,1.0235,1.0234,0,0,1.0166,1.0171,1.02,1.0207,1.0215,1.0212,1.0219,1.0224,1.0224,1.0255,1.0237,1.0255,1.0287,1.0294,1.0302,1.0361,1.0346,1.0366,1.04,1.0421,1.0428,1.0434,1.0454,1.0462,1.0371,1.0371,1.0371,0,1.0197,1.0228,1.0217,1.0242,1.0251,1.023,1.0259,1.0266,1.028,1.0286,1.0271,1.031,1.0314,1.0353,1.0367,1.0374,1.0381,1.0365,1.0428,1.0434,1.0439,1.0458,1.0466,1.0373,1.0373,1.0373,1.0373,0,1.0265,1.0287,1.0309,1.0323,1.0334,1.0361,1.0354,1.0367,1.0358,1.0356,1.0387,1.0392,1.0409,1.0418,1.041,1.0455,1.0446,1.043,1.0403,1.045,1.0468,1.0475,1.0377,1.0376,1.0375,1.0375,0,0,1.0346,1.0352,1.0361,1.0366,1.0374,1.039,1.0416,1.0432,1.0443,1.0453,1.0473,1.05,1.0485,1.0493,1.0486,1.0504,1.055,1.0486,1.0486,1.0497,1.0598,1.061,1.0619,1.054,1.0542,1.0543,1.0597,0,1.0403,1.0447,1.0437,1.048,1.0499,1.0479,1.0501,1.0508,1.0507,1.0523,1.0521,1.054,1.0519,1.0524,1.0541,1.054,1.057,1.0536,1.0559,1.056,1.0557,1.0628,1.0641,1.0692,1.0604,1.0605,1.0606,0,1.0475,1.0487,1.0532,1.0535,1.0543,1.0563,1.0576,1.0592,1.0599,1.0596,1.0606,1.0594,1.0619,1.0592,1.0626,1.0603,1.0612,1.0613,1.0614,1.0616,1.0586,1.0631,1.0708,1.0716,1.0617,1.0616,1.0616,0,1.0528,1.0556,1.0585,1.0591,1.0596,1.061,1.0613,1.0619,1.0628,1.064,1.0646,1.0661,1.0669,1.068,1.0672,1.0654,1.0707,1.068,1.0705,1.0706,1.0717,1.0716,1.0797,1.0724,1.0724,1.0724,1.0724,0,1.0592,1.062,1.0609,1.0628,1.0658,1.0647,1.0677,1.0678,1.0683,1.07,1.0684,1.0701,1.0691,1.0707,1.0701,1.0729,1.0733,1.0732,1.073,1.0733,1.0733,1.0738,1.0734,1.0726,1.0725,1.0725,1.0725,0,1.0656,1.0651,1.0682,1.0684,1.0685,1.0707,1.0708,1.0725,1.0722,1.0745,1.075,1.0745,1.0763,1.0757,1.0777,1.0773,1.0808,1.0802,1.0806,1.0804,1.0829,1.0827,1.0915,1.0926,1.0847,1.0848,1.0848,0,1.0697,1.0718,1.0722,1.0732,1.0736,1.0753,1.0763,1.0753,1.0763,1.0773,1.0788,1.0805,1.0817,1.0847,1.0845,1.086,1.0854,1.0883,1.0856,1.0858,1.0853,1.0851,1.0853,1.0889,1.089,1.0891,1.0891,0,1.0769,1.0765,1.0779,1.0793,1.0804,1.0815,1.0823,1.0833,1.0823,1.0836,1.0853,1.0863,1.0883,1.0899,1.0912,1.0914,1.0901,1.09,1.0906,1.0909,1.091,1.0909,1.082,1.0898,1.0897,1.0897,1.0896,1.0896,1.0822,1.0839,1.0844,1.0861,1.0866,1.0874,1.089,1.0888,1.0903,1.0918,1.0911,1.0931,1.0937,1.0953,1.0958,1.0973,1.0962,1.0971,1.0974,1.0976,1.0979,1.0908,1.0976,1.0976,1.0975,1.0975,1.0975,0,1.0893,1.0895,1.091,1.0922,1.0935,1.0921,1.0929,1.0941,1.0959,1.0965,1.0978,1.0998,1.1013,1.1013,1.1027,1.104,1.1034,1.1044,1.1042,1.1043,1.0989,1.0981,1.1048,1.1048,1.1048,1.1048,1.1048,1.1048,1.0931,1.0958,1.0955,1.0985,1.0987,1.1006,1.1012,1.102,1.1024,1.1048,1.106,1.106,1.1063,1.1077,1.1091,1.109,1.1096,1.1108,1.1105,1.1054,1.1047,1.104,1.1033,1.111,1.111,1.1158,1.1158,1.1159]},{"header":{"parameterUnit":"m.s-1","parameterCategory":1,"la1":30.2991,"la2":30.254,"lo1":-89.0895,"lo2":-89.0444,"dy":0.0017,"dx":0.0017,"nx":28,"ny":28,"refTime":"2025-04-05T21:00:00:Z","depth":0,"parameterNumber":3,"parameterNumberName":"V-component_of_WINDS"},"data":[0,0,0,0,0,0,0,0,0,0,0,0,0,0,0,0,0,0,0,0,0,0,0,0,0,0,0,0,0,0,0,0,0,0,0,0,0,0,0,0,0,0,0,0,0,0,0,0,0,0,0,0,0,0,0,0,0,0,9.2872,9.2873,0,9.3008,9.301,9.3011,9.2962,9.2959,9.2956,9.2953,9.3089,9.3096,9.3102,0,0,0,0,0,0,0,0,0,0,0,0,0,9.2567,9.2573,9.2872,9.2873,9.2875,9.3008,9.301,9.3011,9.2963,9.2959,9.2955,9.2952,9.3087,9.3095,9.3103,0,0,0,0,0,0,0,0,0,0,0,0,0,9.2701,9.2575,9.2871,9.2867,9.2868,9.3007,9.301,9.3012,9.2963,9.2959,9.2954,9.295,9.3085,9.3094,9.3104,9.3255,0,0,9.3133,9.3138,0,0,0,0,0,0,0,0,9.2693,9.2712,9.2866,9.2867,9.2869,9.2963,9.2952,9.3093,9.2965,9.2927,9.2953,9.2948,9.3051,9.3063,9.3099,9.3261,9.3267,9.3134,9.314,9.3144,9.3147,0,0,0,0,0,0,0,9.2684,9.2706,9.2925,9.2868,9.287,9.2857,9.2871,9.2979,9.3013,9.293,9.2927,9.2944,9.3051,9.3089,9.3101,9.3269,9.3134,9.3143,9.3149,9.3152,9.3565,9.3569,0,0,0,0,0,0,9.2674,9.2698,9.2921,9.2929,9.2768,9.2866,9.2882,9.2938,9.3012,9.3018,9.2947,9.2941,9.3075,9.309,9.3106,9.3289,9.3144,9.3153,9.3159,9.356,9.3566,9.3571,0,0,0,0,0,0,9.2668,9.2695,9.2916,9.2813,9.284,9.2877,9.2939,9.2943,9.2981,9.3025,9.303,9.2981,9.3072,9.3092,9.3219,9.3293,9.3158,9.3166,9.3553,9.3561,9.3568,9.3656,0,0,0,0,0,0,9.266,9.2693,9.2751,9.2815,9.2846,9.3027,9.2944,9.2949,9.2998,9.2991,9.3058,9.3064,9.307,9.3205,9.3229,9.3304,9.3174,9.3547,9.3557,9.3566,9.3646,9.3665,9.3682,0,0,0,0,0,9.2649,9.2769,9.2754,9.2781,9.292,9.3031,9.3049,9.3054,9.3005,9.3063,9.3092,9.3062,9.3281,9.3218,9.3245,9.3324,9.3542,9.3554,9.3565,9.3638,9.3662,9.3681,0,0,0,0,0,0,9.2711,9.2777,9.2761,9.2906,9.2964,9.3023,9.3097,9.3079,9.3151,9.3141,9.3143,9.3159,9.3289,9.3319,9.3248,9.3475,9.3404,9.3422,9.3451,9.3473,9.3491,9.3481,9.3182,0,0,0,0,0,9.2742,9.2828,9.2881,9.3003,9.3033,9.3061,9.3109,9.3109,9.3168,9.3191,9.3229,9.3287,9.3369,9.3423,9.35,9.3651,9.3665,9.3718,9.3736,9.375,9.3765,9.3848,9.3873,9.3609,9.3609,9.3609,0,0,9.2806,9.2853,9.2907,9.3017,9.3062,9.315,9.3081,9.3177,9.3243,9.3206,9.3328,9.3358,9.3423,9.3562,9.3625,9.3591,9.3842,9.3765,9.3776,9.3784,9.3863,9.3888,9.391,9.3617,9.3616,9.3614,0,0,9.2968,9.3012,9.312,9.3166,9.3235,9.3253,9.3279,9.3342,9.3361,9.3484,9.3458,9.3536,9.3677,9.3725,9.3767,9.395,9.3926,9.3975,9.4068,9.4148,9.4169,9.4188,9.4254,9.4277,9.399,9.399,9.399,0,9.3038,9.3172,9.3177,9.3276,9.3326,9.3298,9.3407,9.3452,9.3542,9.3577,9.3537,9.3715,9.3757,9.3908,9.3953,9.3988,9.4018,9.3967,9.4166,9.4185,9.4202,9.4265,9.4289,9.3996,9.3995,9.3995,9.3994,0,9.3255,9.3349,9.3427,9.3517,9.3575,9.3679,9.3699,9.3758,9.3753,9.3775,9.3901,9.395,9.4038,9.4074,9.4069,9.4225,9.4202,9.4165,9.4093,9.4233,9.4292,9.4316,9.4004,9.4002,9.4,9.3999,0,0,9.3459,9.3553,9.3581,9.3623,9.3698,9.3769,9.3872,9.3959,9.401,9.4073,9.416,9.4281,9.4247,9.4296,9.4296,9.4368,9.451,9.4321,9.4323,9.4355,9.4686,9.4714,9.4742,9.4495,9.45,9.4503,9.4681,0,9.3628,9.3809,9.3818,9.3982,9.4069,9.4045,9.4134,9.419,9.4213,9.429,9.4315,9.4401,9.435,9.438,9.4449,9.4478,9.4577,9.4466,9.4575,9.4579,9.456,9.4773,9.4802,9.4967,9.4704,9.4708,9.4711,0,9.3848,9.3921,9.4095,9.416,9.4196,9.4276,9.4358,9.4432,9.4494,9.4507,9.4562,9.4553,9.4658,9.4584,9.4729,9.4653,9.4699,9.472,9.4727,9.4737,9.4653,9.4789,9.502,9.5045,9.4747,9.4744,9.4742,0,9.398,9.4121,9.4244,9.428,9.4358,9.4416,9.4451,9.4509,9.4562,9.4633,9.4667,9.4749,9.4795,9.4858,9.4872,9.4816,9.5017,9.4944,9.503,9.503,9.5073,9.507,9.5315,9.5102,9.5102,9.5102,9.5101,0,9.4168,9.4275,9.4305,9.4381,9.4501,9.4509,9.4628,9.4658,9.4711,9.4792,9.4776,9.4852,9.4865,9.4944,9.4955,9.5074,9.5094,9.5107,9.5109,9.5109,9.5107,9.5138,9.5127,9.5108,9.5107,9.5105,9.5104,0,9.4335,9.4359,9.4492,9.4556,9.4574,9.466,9.4715,9.4787,9.4809,9.4912,9.4937,9.4972,9.5064,9.5084,9.5193,9.5201,9.5343,9.5332,9.5322,9.5321,9.5407,9.5399,9.568,9.5718,9.548,9.5482,9.5484,0,9.4453,9.4536,9.4609,9.4663,9.4701,9.4788,9.4842,9.4854,9.4911,9.4991,9.5054,9.5145,9.5218,9.5367,9.5402,9.5486,9.5478,9.5571,9.549,9.5489,9.548,9.5476,9.5484,9.5586,9.5589,9.5591,9.5593,0,9.466,9.4669,9.4748,9.4833,9.4899,9.4966,9.5029,9.5074,9.5095,9.516,9.5255,9.5313,9.5425,9.5516,9.5601,9.5636,9.5619,9.5618,9.5643,9.5644,9.5634,9.5641,9.5364,9.5611,9.561,9.5608,9.5607,9.5606,9.4807,9.488,9.4944,9.5033,9.5083,9.5143,9.5215,9.5248,9.5328,9.5421,9.5423,9.5528,9.5589,9.5701,9.5742,9.5824,9.5795,9.583,9.5839,9.5848,9.5856,9.5622,9.5839,9.5839,9.5838,9.5838,9.5837,0,9.5014,9.5054,9.5137,9.5228,9.5298,9.5277,9.5347,9.5407,9.55,9.5559,9.5633,9.5743,9.5832,9.5874,9.5962,9.6019,9.6014,9.6042,9.6038,9.6047,9.5877,9.5847,9.6045,9.6045,9.6045,9.6045,9.6045,9.6045,9.513,9.5253,9.5269,9.5416,9.5456,9.5559,9.5601,9.5656,9.5705,9.5829,9.5903,9.5931,9.5984,9.6076,9.6156,9.6167,9.62,9.6232,9.6239,9.6079,9.6058,9.6038,9.601,9.6239,9.624,9.6402,9.6403,9.6404]}]]